When you browse on this site, cookies collect data to enhance your experience and personalize the content and advertising you see.
Visit our Privacy Policy to learn more. By continuing to use the site, you agree to this use of cookies and data.
  • In Schweiz
  • Länderverzeichnis
  • Für 7 Tage
  • Wassertemperatur
  • Wetterkarte
  • Widgets
  • user-avatar
    Anmelden

    Stündliche Wetter Tovste

    Heute, 1 Juni, Montag

    Zeit Temperatur Niederschläge Wind Luftdruck Luftfeuchtigkeit
    00:00 +10°C° 0.1 mm 3 m/S 741 mmHg 94%
    01:00 +10°C° 0.1 mm 3 m/S 741 mmHg 95%
    02:00 +10°C° 0 mm 4 m/S 741 mmHg 97%
    03:00 +9°C° 0.4 mm 5 m/S 741 mmHg 96%
    04:00 +9°C° 0.4 mm 5 m/S 741 mmHg 96%
    05:00 +8°C° 0.4 mm 6 m/S 740 mmHg 95%
    06:00 +9°C° 0.1 mm 6 m/S 741 mmHg 92%
    07:00 +9°C° 0.1 mm 7 m/S 741 mmHg 88%
    08:00 +10°C° 0 mm 6 m/S 742 mmHg 85%
    09:00 +10°C° 0.3 mm 6 m/S 742 mmHg 83%
    10:00 +10°C° 0.3 mm 6 m/S 742 mmHg 82%
    11:00 +10°C° 0.3 mm 6 m/S 742 mmHg 81%
    12:00 +11°C° 0.2 mm 6 m/S 742 mmHg 75%
    13:00 +13°C° 0.2 mm 6 m/S 741 mmHg 69%
    14:00 +14°C° 0.2 mm 6 m/S 741 mmHg 63%
    15:00 +14°C° 0.2 mm 5 m/S 741 mmHg 64%
    16:00 +14°C° 0.2 mm 5 m/S 741 mmHg 64%
    17:00 +13°C° 0.2 mm 5 m/S 741 mmHg 65%
    18:00 +12°C° 0.2 mm 5 m/S 741 mmHg 72%
    19:00 +10°C° 0.2 mm 4 m/S 741 mmHg 80%
    20:00 +7°C° 0.2 mm 4 m/S 741 mmHg 87%
    21:00 +8°C° 0 mm 3 m/S 741 mmHg 90%
    22:00 +7°C° 0 mm 3 m/S 740 mmHg 94%
    23:00 +5°C° 0 mm 3 m/S 740 mmHg 97%

    Morgen, 2 Juni, Dienstag

    Zeit Temperatur Niederschläge Wind Luftdruck Luftfeuchtigkeit
    00:00 +5°C° 0 mm 3 m/S 740 mmHg 97%
    01:00 +4°C° 0 mm 3 m/S 740 mmHg 97%
    02:00 +4°C° 0 mm 3 m/S 739 mmHg 97%
    03:00 +5°C° 0.1 mm 3 m/S 739 mmHg 97%
    04:00 +5°C° 0.1 mm 3 m/S 738 mmHg 96%
    05:00 +7°C° 0.1 mm 3 m/S 738 mmHg 95%
    06:00 +8°C° 0 mm 3 m/S 738 mmHg 92%
    07:00 +9°C° 0 mm 3 m/S 738 mmHg 88%
    08:00 +9°C° 0 mm 3 m/S 738 mmHg 85%
    09:00 +10°C° 0.4 mm 4 m/S 738 mmHg 82%
    10:00 +11°C° 0.4 mm 4 m/S 738 mmHg 80%
    11:00 +10°C° 0.4 mm 5 m/S 738 mmHg 77%
    12:00 +12°C° 0.5 mm 5 m/S 738 mmHg 75%
    13:00 +11°C° 0.5 mm 6 m/S 737 mmHg 73%
    14:00 +13°C° 0.5 mm 6 m/S 737 mmHg 72%
    15:00 +11°C° 0.3 mm 6 m/S 737 mmHg 73%
    16:00 +11°C° 0.3 mm 6 m/S 737 mmHg 75%
    17:00 +10°C° 0.3 mm 5 m/S 737 mmHg 77%
    18:00 +9°C° 0 mm 5 m/S 737 mmHg 80%
    19:00 +8°C° 0 mm 4 m/S 737 mmHg 83%
    20:00 +7°C° 0 mm 4 m/S 737 mmHg 87%
    21:00 +7°C° 0 mm 4 m/S 737 mmHg 89%
    22:00 +6°C° 0 mm 4 m/S 737 mmHg 91%
    23:00 +6°C° 0 mm 4 m/S 737 mmHg 94%

    übermorgen, 3 Juni, Mittwoch

    Zeit Temperatur Niederschläge Wind Luftdruck Luftfeuchtigkeit
    00:00 +6°C° 0 mm 4 m/S 737 mmHg 93%
    01:00 +6°C° 0 mm 4 m/S 737 mmHg 93%
    02:00 +6°C° 0 mm 4 m/S 738 mmHg 92%
    03:00 +6°C° 0.1 mm 4 m/S 737 mmHg 92%
    04:00 +6°C° 0.1 mm 4 m/S 737 mmHg 92%
    05:00 +6°C° 0.1 mm 4 m/S 737 mmHg 93%
    06:00 +7°C° 0.1 mm 4 m/S 737 mmHg 90%
    07:00 +8°C° 0.1 mm 4 m/S 737 mmHg 88%
    08:00 +10°C° 0.1 mm 4 m/S 738 mmHg 85%
    09:00 +11°C° 0.2 mm 4 m/S 738 mmHg 82%
    10:00 +12°C° 0.2 mm 4 m/S 738 mmHg 79%
    11:00 +13°C° 0.2 mm 4 m/S 738 mmHg 75%
    12:00 +13°C° 0.6 mm 4 m/S 738 mmHg 74%
    13:00 +14°C° 0.6 mm 4 m/S 738 mmHg 73%
    14:00 +15°C° 0.6 mm 4 m/S 738 mmHg 72%
    15:00 +15°C° 0.4 mm 4 m/S 737 mmHg 73%
    16:00 +16°C° 0.4 mm 3 m/S 737 mmHg 73%
    17:00 +16°C° 0.4 mm 3 m/S 737 mmHg 74%
    18:00 +15°C° 0.1 mm 2 m/S 737 mmHg 79%
    19:00 +13°C° 0.1 mm 2 m/S 737 mmHg 84%
    20:00 +12°C° 0.1 mm 2 m/S 737 mmHg 89%
    21:00 +10°C° 0 mm 2 m/S 737 mmHg 90%
    22:00 +9°C° 0 mm 2 m/S 738 mmHg 92%
    23:00 +8°C° 0 mm 2 m/S 738 mmHg 93%

    4 Juni, Donnerstag

    Zeit Temperatur Niederschläge Wind Luftdruck Luftfeuchtigkeit
    00:00 +8°C° 0 mm 2 m/S 738 mmHg 94%
    01:00 +8°C° 0 mm 2 m/S 738 mmHg 95%
    02:00 +7°C° 0 mm 3 m/S 738 mmHg 95%
    03:00 +7°C° 0 mm 3 m/S 738 mmHg 96%
    04:00 +7°C° 0 mm 3 m/S 738 mmHg 96%
    05:00 +7°C° 0 mm 3 m/S 738 mmHg 96%
    06:00 +9°C° 0 mm 3 m/S 738 mmHg 92%
    07:00 +10°C° 0 mm 3 m/S 738 mmHg 87%
    08:00 +12°C° 0 mm 4 m/S 738 mmHg 83%
    09:00 +13°C° 0.1 mm 4 m/S 738 mmHg 77%
    10:00 +15°C° 0.1 mm 4 m/S 738 mmHg 72%
    11:00 +17°C° 0.1 mm 4 m/S 738 mmHg 66%
    12:00 +16°C° 0.3 mm 5 m/S 738 mmHg 66%
    13:00 +17°C° 0.3 mm 5 m/S 738 mmHg 65%
    14:00 +17°C° 0.3 mm 5 m/S 738 mmHg 64%
    15:00 +17°C° 0.2 mm 5 m/S 738 mmHg 66%
    16:00 +17°C° 0.2 mm 5 m/S 738 mmHg 68%
    17:00 +18°C° 0.2 mm 4 m/S 738 mmHg 71%
    18:00 +15°C° 0.2 mm 4 m/S 738 mmHg 76%
    19:00 +14°C° 0.2 mm 3 m/S 738 mmHg 82%
    20:00 +13°C° 0.2 mm 3 m/S 738 mmHg 88%
    21:00 +12°C° 0 mm 3 m/S 738 mmHg 89%
    22:00 +12°C° 0 mm 3 m/S 738 mmHg 90%
    23:00 +11°C° 0 mm 3 m/S 738 mmHg 91%

    5 Juni, Freitag

    Zeit Temperatur Niederschläge Wind Luftdruck Luftfeuchtigkeit
    00:00 +11°C° 0.2 mm 3 m/S 738 mmHg 91%
    01:00 +10°C° 0.2 mm 3 m/S 737 mmHg 92%
    02:00 +10°C° 0.2 mm 2 m/S 737 mmHg 93%
    03:00 +10°C° 0.2 mm 2 m/S 737 mmHg 93%
    04:00 +10°C° 0.2 mm 2 m/S 737 mmHg 94%
    05:00 +10°C° 0.2 mm 2 m/S 737 mmHg 94%
    06:00 +13°C° 0 mm 2 m/S 738 mmHg 90%
    07:00 +15°C° 0 mm 2 m/S 738 mmHg 87%
    08:00 +16°C° 0 mm 3 m/S 738 mmHg 83%
    09:00 +18°C° 0 mm 2 m/S 738 mmHg 77%
    10:00 +20°C° 0 mm 2 m/S 738 mmHg 71%
    11:00 +21°C° 0 mm 2 m/S 738 mmHg 65%
    12:00 +22°C° 0.1 mm 3 m/S 738 mmHg 64%
    13:00 +22°C° 0.1 mm 4 m/S 739 mmHg 64%
    14:00 +23°C° 0.1 mm 4 m/S 739 mmHg 63%
    15:00 +22°C° 0.3 mm 4 m/S 739 mmHg 67%
    16:00 +22°C° 0.3 mm 3 m/S 739 mmHg 72%
    17:00 +21°C° 0.3 mm 3 m/S 739 mmHg 76%
    18:00 +20°C° 0.2 mm 2 m/S 739 mmHg 81%
    19:00 +19°C° 0.2 mm 2 m/S 739 mmHg 86%
    20:00 +17°C° 0.2 mm 2 m/S 739 mmHg 91%
    21:00 +17°C° 0 mm 2 m/S 739 mmHg 91%
    22:00 +16°C° 0 mm 2 m/S 739 mmHg 91%
    23:00 +16°C° 0 mm 2 m/S 739 mmHg 92%

    6 Juni, Samstag

    Zeit Temperatur Niederschläge Wind Luftdruck Luftfeuchtigkeit
    00:00 +15°C° 0 mm 2 m/S 739 mmHg 92%
    01:00 +15°C° 0 mm 2 m/S 739 mmHg 93%
    02:00 +15°C° 0 mm 2 m/S 739 mmHg 93%
    03:00 +15°C° 0 mm 2 m/S 739 mmHg 93%
    04:00 +14°C° 0 mm 3 m/S 739 mmHg 94%
    05:00 +14°C° 0 mm 3 m/S 739 mmHg 94%
    06:00 +17°C° 0 mm 3 m/S 739 mmHg 91%
    07:00 +18°C° 0 mm 4 m/S 739 mmHg 88%
    08:00 +20°C° 0 mm 4 m/S 739 mmHg 85%
    09:00 +22°C° 0.8 mm 4 m/S 739 mmHg 80%
    10:00 +23°C° 0.8 mm 5 m/S 739 mmHg 75%
    11:00 +26°C° 0.8 mm 5 m/S 739 mmHg 70%
    12:00 +25°C° 1.2 mm 5 m/S 739 mmHg 73%
    13:00 +23°C° 1.2 mm 5 m/S 739 mmHg 76%
    14:00 +23°C° 1.2 mm 5 m/S 738 mmHg 80%
    15:00 +23°C° 1 mm 4 m/S 738 mmHg 80%
    16:00 +24°C° 1 mm 3 m/S 738 mmHg 81%
    17:00 +24°C° 1 mm 3 m/S 738 mmHg 82%
    18:00 +21°C° 0.8 mm 3 m/S 738 mmHg 85%
    19:00 +20°C° 0.8 mm 3 m/S 738 mmHg 87%
    20:00 +18°C° 0.8 mm 3 m/S 738 mmHg 90%
    21:00 +18°C° 0 mm 2 m/S 738 mmHg 92%
    22:00 +17°C° 0 mm 2 m/S 739 mmHg 93%
    23:00 +16°C° 0 mm 1 m/S 739 mmHg 95%
    Mehr zeigen